Flag for Canada Weather past 2 weeks in Burlington, Ontario, Canada

Now
45 °F

Quite cool.


Feels Like: 39 °F
Forecast: 43 / 54 °F
Wind: 12 mph from North

Location: Burlington Piers

Current Time: Oct 21, 2014 at 10:23:36 PM

Latest Report: Oct 21, 2014 at 10:00 PM


Visibility: N/A

Pressure: 30.15 "Hg

Humidity: 87%

Dew point: 41 °F

Location of BurlingtonLocation

Historic Weather in Burlington — Graph

°F

Burlington temperature yesterday

Maximum temperature yesterday: 57 °F (at 3:00 PM)
Minimum temperature yesterday: 47 °F (at 1:00 AM)
Average temperature yesterday: 52 °F

Past Weeks' High & Low Weather Summary

 TemperatureHumidityPressure
High76 °F (Oct 14, 3:00 PM)100% (Oct 16, 10:00 AM)30.29 "Hg (Oct 16, 10:00 AM)
Low40 °F (Oct 19, 10:00 AM)35% (Oct 11, 5:00 PM)29.48 "Hg (Oct 17, 10:00 PM)
Average53 °F74%29.89 "Hg
* Reported Oct 6 8:00 PM — Oct 21 8:00 PM, Burlington, Weather by CustomWeather, © 2014

Note: Actual official high and low records may vary slightly from our data, if they occured in-between our weather recording intervals... More about our weather records

Advertising

Burlington weather history for previous 24 hours

 ConditionsComfort  
Time TempWeatherWind HumidityBarometerVisibility
8:00 PM
Oct 21
47 °FCool.15 mph83%30.09 "HgN/A
7:00 PM47 °FCool.15 mph85%30.06 "HgN/A
6:00 PM46 °FCool.12 mph90%30.03 "HgN/A
5:00 PM46 °FCool.12 mph90%30.00 "HgN/A
4:00 PM49 °FCool.15 mph79%29.97 "HgN/A
3:00 PM48 °FCool.16 mph85%29.94 "HgN/A
2:00 PM48 °FCool.17 mph88%29.92 "HgN/A
1:00 PM49 °FCool.15 mph90%29.90 "HgN/A
12:00 PM51 °FCool.5 mph91%29.88 "HgN/A
11:00 AM51 °FCool.2 mph89%29.86 "HgN/A
10:00 AM49 °FCool.3 mph87%29.85 "HgN/A
9:00 AM52 °FCool.3 mph86%29.84 "HgN/A
8:00 AM52 °FCool.5 mph86%29.82 "HgN/A
7:00 AM52 °FCool.5 mph85%29.80 "HgN/A
6:00 AM52 °FCool.3 mph78%29.79 "HgN/A
5:00 AM53 °FCool.6 mph84%29.79 "HgN/A
4:00 AM53 °FCool.5 mph85%29.78 "HgN/A
3:00 AM53 °FCool.2 mph84%29.79 "HgN/A
2:00 AM53 °FCool.2 mph84%29.78 "HgN/A
1:00 AM53 °FCool.3 mph84%29.79 "HgN/A
12:00 AM54 °FCool.3 mph85%29.79 "HgN/A
11:00 PM
Oct 20
54 °FCool.2 mph83%29.80 "HgN/A
10:00 PM54 °FCool.2 mph88%29.80 "HgN/A
Weather by CustomWeather, © 2014

See weather overviewHow to use our weather pages